Regional Weather Roundup
Issued by NWS

Home | Current Version | Previous Version | Text Only | Print | Product List | Glossary Off
Versions: 1 2 3 4 5 6 7 8 9 10 11 12 13 14 15 16 17 18 19 20 21 22 23 24 25 26 27 28 29 30 31 32 33 34 35 36 37 38 39 40 41 42 43 44 45 46 47 48 49 50

000
ASUS43 KFSD 231302
RWRSD

WEATHER ROUNDUP FOR SOUTH DAKOTA
NATIONAL WEATHER SERVICE SIOUX FALLS SD
800 AM CDT SAT MAY 23 2015

NOTE: "FAIR" INDICATES FEW OR NO CLOUDS BELOW 12,000 FEET WITH NO
SIGNIFICANT WEATHER AND/OR OBSTRUCTIONS TO VISIBILITY.


SDZ001>005-009-010-012>017-231400-
NORTHWEST AND NORTH CENTRAL SOUTH DAKOTA

CITY           SKY/WX    TMP DP  RH WIND       PRES   REMARKS
FAITH            N/A     48  44  86 E9        30.10S
MOBRIDGE       PTSUNNY   52  47  83 E7        30.13S
$$

SDZ012>016-024>037-041>051-057-063-072>074-231400-
SOUTHWEST AND SOUTH CENTRAL SOUTH DAKOTA

CITY           SKY/WX    TMP DP  RH WIND       PRES   REMARKS
RAPID CTY ARPT CLOUDY    48  45  89 SE10      30.06S
PIERRE         CLOUDY    52  47  83 E12       30.12S
CUSTER         FOG       41  39  93 E6        30.05R VSB<1/4
ELLSWORTH AFB  CLOUDY    48  46  93 SE10      30.06
PHILIP         CLOUDY    50  46  86 E9        30.11R
PINE RIDGE     CLOUDY    48  45  89 E7        30.06F
WINNER         CLOUDY    52  49  89 E9        30.12S FOG
$$

SDZ004>011-016>023-039-040-231400-
NORTHEAST SOUTH DAKOTA

CITY           SKY/WX    TMP DP  RH WIND       PRES   REMARKS
ABERDEEN       CLOUDY    52  44  74 E5        30.20S
WATERTOWN      PTSUNNY   56  45  66 E3        30.21S
BROOKINGS      CLOUDY    54  46  76 SE8       30.22F
$$

SDZ017-020-022-023-036>040-048>070-231400-
SOUTHEAST SOUTH DAKOTA

CITY           SKY/WX    TMP DP  RH WIND       PRES   REMARKS
SIOUX FALLS    CLOUDY    54  50  86 E6        30.20F
HURON          CLOUDY    55  47  74 SE7       30.17S
CHAMBERLAIN    LGT RAIN  50  50  99 SE9       30.14S
MITCHELL       CLOUDY    54  50  86 SE10      30.18S
YANKTON        CLOUDY    55  48  76 E7        30.18R
$$

ABBREVIATIONS USED IN REMARKS
   TC - TEMPERATURE IN CELSIUS
  WCI - WIND CHILL INDEX
   HX - HEAT INDEX
  VSB - VISIBILITY




USA.gov is the U.S. government's official web portal to all federal, state and local government web resources and services.